[[{"header":{"parameterUnit":"m.s-1","parameterCategory":1,"la1":30.2991,"la2":30.254,"lo1":-89.0895,"lo2":-89.0444,"dy":0.0017,"dx":0.0017,"nx":28,"ny":28,"refTime":"2023-08-07T09:00:00:Z","depth":0,"parameterNumber":2,"parameterNumberName":"U-component_of_WINDS"},"data":[0,0,0,0,0,0,0,0,0,0,0,0,0,0,0,0,0,0,0,0,0,0,0,0,0,0,0,0,0,0,0,0,0,0,0,0,0,0,0,0,0,0,0,0,0,0,0,0,0,0,0,0,0,0,0,0,0,0,5.2855,5.2857,0,5.3022,5.3024,5.3026,5.2974,5.297,5.2967,5.2963,5.3136,5.3143,5.3151,0,0,0,0,0,0,0,0,0,0,0,0,0,5.249,5.2497,5.2855,5.2857,5.2859,5.3022,5.3024,5.3026,5.2974,5.297,5.2966,5.2962,5.3133,5.3142,5.3152,0,0,0,0,0,0,0,0,0,0,0,0,0,5.2652,5.2499,5.2854,5.2852,5.2854,5.3021,5.3024,5.3027,5.2975,5.297,5.2965,5.296,5.313,5.3141,5.3153,5.3332,0,0,5.3189,5.3194,0,0,0,0,0,0,0,0,5.2643,5.2665,5.2851,5.2853,5.2855,5.2971,5.2958,5.3129,5.2977,5.2929,5.2963,5.2957,5.3085,5.3101,5.3144,5.3341,5.3348,5.319,5.3198,5.3203,5.3206,0,0,0,0,0,0,0,5.2631,5.2658,5.2921,5.2853,5.2856,5.2843,5.286,5.299,5.3035,5.2933,5.293,5.295,5.3086,5.3132,5.3147,5.335,5.319,5.3201,5.3208,5.3212,5.37,5.3705,0,0,0,0,0,0,5.2619,5.2649,5.2915,5.2926,5.2733,5.2854,5.2873,5.2939,5.3034,5.3043,5.2954,5.2947,5.3115,5.3134,5.3153,5.3367,5.3203,5.3214,5.322,5.3694,5.3701,5.3707,0,0,0,0,0,0,5.2611,5.2643,5.2909,5.2786,5.2819,5.2866,5.2941,5.2946,5.2992,5.305,5.3057,5.2994,5.3111,5.3137,5.3287,5.3372,5.3219,5.323,5.3687,5.3696,5.3704,5.3797,0,0,0,0,0,0,5.2601,5.2641,5.271,5.2788,5.2826,5.3041,5.2946,5.2953,5.3013,5.3004,5.3089,5.3098,5.3109,5.327,5.3299,5.3386,5.3239,5.3679,5.3691,5.3701,5.3787,5.3808,5.3826,0,0,0,0,0,5.2588,5.273,5.2713,5.2746,5.2913,5.3046,5.3067,5.3077,5.302,5.3089,5.3125,5.3095,5.3358,5.3286,5.3318,5.341,5.3674,5.3688,5.37,5.3778,5.3804,5.3826,0,0,0,0,0,0,5.2661,5.2741,5.2723,5.2895,5.2964,5.3037,5.3124,5.3105,5.3192,5.3181,5.3189,5.3209,5.3363,5.3402,5.332,5.3587,5.3508,5.3528,5.3556,5.3581,5.36,5.3587,5.3249,0,0,0,0,0,5.2697,5.2798,5.2862,5.3008,5.3043,5.3078,5.3136,5.3137,5.3209,5.3239,5.3286,5.3358,5.3456,5.3521,5.3615,5.3792,5.3809,5.3871,5.3891,5.3907,5.3924,5.4018,5.4045,5.375,5.375,5.375,0,0,5.2773,5.2829,5.2892,5.3024,5.3077,5.3181,5.3103,5.3217,5.3294,5.3256,5.3401,5.3438,5.3518,5.3682,5.3757,5.3719,5.4009,5.3923,5.3936,5.3944,5.4034,5.4062,5.4087,5.3759,5.3758,5.3756,0,0,5.2963,5.3017,5.3142,5.3197,5.3279,5.3301,5.3331,5.3407,5.343,5.3575,5.3548,5.3639,5.381,5.3867,5.3918,5.4128,5.4102,5.4158,5.4261,5.4353,5.4376,5.4397,5.4469,5.4495,5.4175,5.4176,5.4176,0,5.3047,5.3202,5.3209,5.3325,5.3382,5.3352,5.3479,5.3532,5.364,5.3681,5.3637,5.3847,5.39,5.4075,5.4126,5.417,5.4203,5.4148,5.4372,5.4393,5.4412,5.4481,5.4509,5.4182,5.4181,5.418,5.418,0,5.33,5.3408,5.35,5.3604,5.3672,5.3793,5.3817,5.3885,5.388,5.3906,5.4053,5.4114,5.4219,5.4261,5.4258,5.4436,5.4409,5.4369,5.429,5.4446,5.4511,5.4538,5.419,5.4188,5.4186,5.4185,0,0,5.3542,5.3647,5.368,5.3726,5.3813,5.3896,5.4014,5.4116,5.4173,5.4249,5.4347,5.449,5.4452,5.4511,5.4514,5.4595,5.4753,5.4544,5.4546,5.4579,5.4951,5.4979,5.501,5.4737,5.4743,5.4747,5.4943,0,5.3738,5.3945,5.3954,5.4143,5.4241,5.4213,5.4316,5.438,5.4407,5.4494,5.4525,5.4625,5.4569,5.4604,5.4682,5.4717,5.4828,5.4704,5.4828,5.4832,5.4807,5.5044,5.5075,5.5257,5.4969,5.4973,5.4976,0,5.3995,5.4076,5.4275,5.4345,5.4386,5.4479,5.457,5.4655,5.4726,5.474,5.4804,5.4795,5.4915,5.4832,5.4997,5.4912,5.4963,5.4988,5.4995,5.5006,5.4912,5.5059,5.5316,5.5343,5.5017,5.5014,5.5011,0,5.4148,5.4308,5.4447,5.4487,5.4573,5.4638,5.4677,5.4743,5.4802,5.4883,5.4921,5.5015,5.5067,5.5139,5.5155,5.5094,5.5319,5.5238,5.5332,5.5332,5.538,5.5377,5.5647,5.5417,5.5416,5.5416,5.5415,0,5.4365,5.4487,5.4516,5.4601,5.4736,5.4745,5.4878,5.4912,5.4971,5.5061,5.5044,5.5129,5.5145,5.5234,5.5247,5.538,5.5404,5.5418,5.5419,5.5418,5.5416,5.5451,5.5438,5.5423,5.5421,5.542,5.5419,0,5.456,5.4584,5.4733,5.4801,5.4821,5.4917,5.4976,5.5057,5.5081,5.5196,5.5223,5.5262,5.5365,5.5388,5.5511,5.552,5.5676,5.5667,5.5652,5.5651,5.5743,5.5733,5.6043,5.6083,5.5829,5.5831,5.5833,0,5.4696,5.4788,5.4866,5.4925,5.4966,5.5062,5.5121,5.5133,5.5196,5.5283,5.5353,5.5454,5.5535,5.5701,5.574,5.5833,5.5824,5.5926,5.5838,5.5833,5.5823,5.5816,5.5824,5.5943,5.5946,5.5948,5.595,0,5.4934,5.494,5.5027,5.5118,5.5189,5.5262,5.5331,5.538,5.54,5.5472,5.5576,5.5639,5.5763,5.5863,5.5956,5.5996,5.5976,5.5977,5.6003,5.6002,5.5989,5.5995,5.5696,5.597,5.5968,5.5966,5.5965,5.5964,5.5102,5.5181,5.5248,5.5344,5.5397,5.5461,5.5539,5.5572,5.566,5.5761,5.5762,5.5876,5.5943,5.6065,5.611,5.6199,5.6167,5.6206,5.6215,5.6224,5.6231,5.5976,5.6216,5.6216,5.6215,5.6215,5.6214,0,5.5337,5.5377,5.5466,5.5561,5.5637,5.5611,5.5685,5.575,5.5849,5.5913,5.5993,5.6111,5.6207,5.6253,5.6348,5.6409,5.6402,5.6434,5.6428,5.6437,5.6256,5.6222,5.6437,5.6437,5.6437,5.6437,5.6437,5.6437,5.5468,5.56,5.5615,5.5773,5.5812,5.5922,5.5967,5.6025,5.6075,5.6208,5.6287,5.6316,5.6372,5.647,5.6557,5.6568,5.6602,5.6637,5.6644,5.6473,5.645,5.6429,5.6397,5.6645,5.6646,5.6818,5.6819,5.682]},{"header":{"parameterUnit":"m.s-1","parameterCategory":1,"la1":30.2991,"la2":30.254,"lo1":-89.0895,"lo2":-89.0444,"dy":0.0017,"dx":0.0017,"nx":28,"ny":28,"refTime":"2023-08-07T09:00:00:Z","depth":0,"parameterNumber":3,"parameterNumberName":"V-component_of_WINDS"},"data":[0,0,0,0,0,0,0,0,0,0,0,0,0,0,0,0,0,0,0,0,0,0,0,0,0,0,0,0,0,0,0,0,0,0,0,0,0,0,0,0,0,0,0,0,0,0,0,0,0,0,0,0,0,0,0,0,0,0,1.5944,1.5945,0,1.5969,1.597,1.597,1.5951,1.595,1.5949,1.5949,1.5974,1.5975,1.5977,0,0,0,0,0,0,0,0,0,0,0,0,0,1.5879,1.588,1.5944,1.5945,1.5945,1.5969,1.597,1.597,1.5951,1.595,1.5949,1.5948,1.5974,1.5975,1.5977,0,0,0,0,0,0,0,0,0,0,0,0,0,1.5906,1.5881,1.5944,1.5938,1.5938,1.5969,1.597,1.597,1.5951,1.595,1.5949,1.5948,1.5973,1.5975,1.5977,1.6015,0,0,1.5984,1.5985,0,0,0,0,0,0,0,0,1.5904,1.5908,1.5939,1.5939,1.5939,1.5956,1.5956,1.5985,1.5952,1.5946,1.5949,1.5947,1.5969,1.5971,1.5979,1.6017,1.6018,1.5984,1.5985,1.5986,1.5987,0,0,0,0,0,0,0,1.5903,1.5907,1.5954,1.5939,1.5939,1.5934,1.5937,1.5961,1.5964,1.5947,1.5945,1.5949,1.5969,1.5977,1.5979,1.6018,1.5984,1.5986,1.5987,1.5988,1.6087,1.6088,0,0,0,0,0,0,1.5901,1.5906,1.5953,1.5955,1.5918,1.5936,1.5939,1.5952,1.5964,1.5965,1.595,1.5948,1.5974,1.5977,1.598,1.6025,1.5986,1.5988,1.599,1.6086,1.6087,1.6089,0,0,0,0,0,0,1.59,1.5906,1.5952,1.593,1.5936,1.5939,1.5953,1.5953,1.5961,1.5966,1.5966,1.5958,1.5973,1.5977,1.6006,1.6025,1.5989,1.5991,1.6084,1.6086,1.6088,1.6115,0,0,0,0,0,0,1.5898,1.5905,1.592,1.5931,1.5937,1.5979,1.5954,1.5954,1.5965,1.5962,1.5974,1.5974,1.5972,1.6003,1.6009,1.6028,1.5993,1.6082,1.6085,1.6087,1.6112,1.6118,1.6122,0,0,0,0,0,1.5896,1.5927,1.5921,1.5927,1.5956,1.598,1.5984,1.5981,1.5966,1.5981,1.5984,1.5974,1.6022,1.6006,1.6012,1.6032,1.6081,1.6084,1.6087,1.611,1.6117,1.6122,0,0,0,0,0,0,1.5919,1.5928,1.5922,1.5957,1.5968,1.5977,1.5995,1.5988,1.6002,1.6,1.5995,1.5998,1.6028,1.6033,1.6015,1.6069,1.6049,1.6054,1.6065,1.6071,1.6076,1.6074,1.5995,0,0,0,0,0,1.5929,1.5948,1.5955,1.5985,1.5991,1.5992,1.6003,1.5999,1.601,1.6015,1.602,1.6031,1.6048,1.606,1.6076,1.6113,1.6114,1.6129,1.6134,1.6138,1.6142,1.616,1.6167,1.6098,1.6098,1.6098,0,0,1.5948,1.5955,1.5968,1.599,1.5998,1.6018,1.5996,1.6018,1.6033,1.6018,1.6046,1.605,1.6062,1.6094,1.6109,1.6099,1.6161,1.6142,1.6145,1.6147,1.6164,1.6171,1.6176,1.61,1.61,1.61,0,0,1.5994,1.6001,1.6027,1.6035,1.6047,1.6048,1.6054,1.6064,1.6066,1.6094,1.6083,1.6099,1.613,1.6138,1.6147,1.6194,1.6185,1.6199,1.6225,1.6243,1.6248,1.6253,1.6269,1.6275,1.6203,1.6203,1.6203,0,1.6016,1.6046,1.6042,1.6064,1.6074,1.6061,1.6087,1.6095,1.6111,1.6118,1.6107,1.6144,1.6151,1.6185,1.6197,1.6204,1.621,1.6198,1.6248,1.6252,1.6257,1.6272,1.6278,1.6205,1.6204,1.6204,1.6204,0,1.6073,1.6093,1.6112,1.6129,1.614,1.6165,1.6163,1.6176,1.6171,1.6172,1.62,1.6208,1.6225,1.6233,1.6229,1.6266,1.626,1.6248,1.6228,1.6265,1.6279,1.6285,1.6207,1.6206,1.6206,1.6205,0,0,1.6134,1.6147,1.6154,1.6161,1.6172,1.6188,1.6211,1.6228,1.6238,1.625,1.6269,1.6294,1.6283,1.6292,1.6289,1.6305,1.6341,1.6291,1.6291,1.6299,1.6381,1.639,1.6397,1.6334,1.6336,1.6336,1.638,0,1.618,1.622,1.6216,1.6254,1.6273,1.626,1.628,1.6289,1.6291,1.6306,1.6308,1.6325,1.631,1.6315,1.6331,1.6333,1.6357,1.633,1.6351,1.6352,1.6349,1.6404,1.6413,1.6454,1.6386,1.6387,1.6387,0,1.6239,1.6252,1.6292,1.6299,1.6307,1.6325,1.6339,1.6354,1.6364,1.6364,1.6374,1.6367,1.6389,1.6369,1.6399,1.6381,1.6389,1.6392,1.6393,1.6395,1.6372,1.6407,1.6467,1.6473,1.6396,1.6396,1.6395,0,1.6279,1.6307,1.6334,1.634,1.635,1.6363,1.6367,1.6376,1.6385,1.6398,1.6404,1.6419,1.6427,1.6439,1.6436,1.6421,1.6467,1.6446,1.6467,1.6467,1.6477,1.6476,1.6539,1.6483,1.6483,1.6483,1.6483,0,1.633,1.6355,1.6352,1.6368,1.6395,1.639,1.6417,1.642,1.6427,1.6444,1.6434,1.645,1.6445,1.646,1.6458,1.6483,1.6487,1.6487,1.6486,1.6488,1.6488,1.6493,1.649,1.6485,1.6484,1.6484,1.6484,0,1.638,1.6379,1.6407,1.6414,1.6416,1.6436,1.6441,1.6457,1.6457,1.6478,1.6482,1.6483,1.65,1.6499,1.6518,1.6517,1.6548,1.6544,1.6544,1.6543,1.6564,1.6562,1.6632,1.6641,1.658,1.658,1.6581,0,1.6412,1.6431,1.6439,1.6449,1.6455,1.6472,1.6482,1.6477,1.6488,1.6499,1.6513,1.6529,1.6542,1.657,1.6572,1.6587,1.6583,1.6607,1.6585,1.6586,1.6583,1.6581,1.6583,1.6611,1.6611,1.6612,1.6612,0,1.647,1.6468,1.6483,1.6497,1.6509,1.652,1.653,1.6539,1.6535,1.6548,1.6565,1.6575,1.6595,1.6611,1.6624,1.6629,1.662,1.6619,1.6625,1.6626,1.6626,1.6626,1.6555,1.6618,1.6617,1.6617,1.6616,1.6616,1.6512,1.6527,1.6535,1.6551,1.6558,1.6567,1.6582,1.6584,1.6598,1.6614,1.661,1.663,1.6637,1.6655,1.666,1.6675,1.6667,1.6675,1.6677,1.6679,1.6681,1.6624,1.6678,1.6678,1.6677,1.6677,1.6677,0,1.6568,1.6572,1.6587,1.6601,1.6614,1.6604,1.6615,1.6626,1.6643,1.6651,1.6664,1.6683,1.6698,1.6701,1.6716,1.6727,1.6723,1.6731,1.673,1.6731,1.6688,1.6682,1.6733,1.6733,1.6733,1.6733,1.6733,1.6733,1.6599,1.6624,1.6623,1.6652,1.6656,1.6675,1.6681,1.6689,1.6696,1.6718,1.673,1.6732,1.6738,1.6752,1.6766,1.6766,1.6771,1.6781,1.6779,1.6739,1.6734,1.6728,1.6722,1.6782,1.6782,1.6821,1.6821,1.6821]}]]